Location: Pitton
(51.0667°N, 1.7000°W)
Time: 06:20:08
(UTC+00:00)

USA 186 - Pass Details

Date: 17 September 2019
Orbit: 261 x 450 km, 96.9° (Epoch: 07 October)

Event Time Altitude Azimuth Distance (km) Brightness Sun altitude
Exits shadow 18:48:04 - 139° (SE) 2,271 5.0 -5.6°
Reaches altitude 10° 18:49:51 10° 129° (SE) 1,574 4.1 -5.9°
Maximum altitude 18:52:48 28° 68° (ENE) 878 2.9 -6.4°
Drops below altitude 10° 18:55:49 10° 8° (N) 1,603 4.8 -6.8°
Sets 18:58:02 0° 357° (N) 2,478 5.9 -7.2°
